• In Austria
  • List of Countries
  • For 7 days
  • Water Temperature
  • Satellite Maps
  • Weather Map
  • News
  • Weather Widgets
  • user-avatar
    Login

    Hourly Weather Algiers

    Today, 20 July, Friday

    Time Temperature Precipitation Wind Pressure Humidity
    00:00 +33°C° 0 mm 1 mps 748 mmHg 44%
    01:00 +32°C° 0 mm 2 mps 747 mmHg 43%
    02:00 +32°C° 0 mm 2 mps 747 mmHg 42%
    03:00 +31°C° 0 mm 2 mps 747 mmHg 41%
    04:00 +32°C° 0 mm 2 mps 747 mmHg 41%
    05:00 +32°C° 0 mm 2 mps 747 mmHg 41%
    06:00 +33°C° 0 mm 1 mps 747 mmHg 41%
    07:00 +34°C° 0 mm 1 mps 747 mmHg 37%
    08:00 +36°C° 0 mm 1 mps 747 mmHg 34%
    09:00 +39°C° 0 mm 1 mps 747 mmHg 30%
    10:00 +40°C° 0 mm 2 mps 747 mmHg 28%
    11:00 +41°C° 0 mm 2 mps 747 mmHg 27%
    12:00 +43°C° 0 mm 3 mps 747 mmHg 25%
    13:00 +42°C° 0 mm 3 mps 746 mmHg 28%
    14:00 +40°C° 0 mm 3 mps 746 mmHg 31%
    15:00 +38°C° 0 mm 3 mps 746 mmHg 34%
    16:00 +37°C° 0 mm 2 mps 746 mmHg 37%
    17:00 +37°C° 0 mm 2 mps 746 mmHg 41%
    18:00 +36°C° 0 mm 2 mps 745 mmHg 44%
    19:00 +35°C° 0 mm 2 mps 745 mmHg 46%
    20:00 +34°C° 0 mm 2 mps 746 mmHg 48%
    21:00 +34°C° 0 mm 2 mps 746 mmHg 50%
    22:00 +34°C° 0 mm 2 mps 746 mmHg 49%
    23:00 +34°C° 0 mm 3 mps 746 mmHg 47%

    Tomorrow, 21 July, Saturday

    Time Temperature Precipitation Wind Pressure Humidity
    00:00 +34°C° 0 mm 3 mps 745 mmHg 46%
    01:00 +33°C° 0 mm 3 mps 745 mmHg 50%
    02:00 +31°C° 0 mm 3 mps 745 mmHg 53%
    03:00 +30°C° 0 mm 2 mps 745 mmHg 57%
    04:00 +30°C° 0 mm 2 mps 746 mmHg 59%
    05:00 +29°C° 0 mm 2 mps 746 mmHg 61%
    06:00 +29°C° 0 mm 2 mps 746 mmHg 62%
    07:00 +31°C° 0 mm 2 mps 746 mmHg 54%
    08:00 +34°C° 0 mm 2 mps 747 mmHg 45%
    09:00 +36°C° 0 mm 2 mps 747 mmHg 37%
    10:00 +37°C° 0 mm 2 mps 747 mmHg 33%
    11:00 +38°C° 0 mm 3 mps 747 mmHg 30%
    12:00 +40°C° 0 mm 3 mps 747 mmHg 26%
    13:00 +39°C° 0 mm 3 mps 747 mmHg 28%
    14:00 +39°C° 0 mm 3 mps 746 mmHg 30%
    15:00 +38°C° 0 mm 4 mps 746 mmHg 31%
    16:00 +37°C° 0 mm 3 mps 746 mmHg 35%
    17:00 +35°C° 0 mm 2 mps 746 mmHg 38%
    18:00 +34°C° 0 mm 2 mps 746 mmHg 41%
    19:00 +32°C° 0 mm 2 mps 747 mmHg 44%
    20:00 +31°C° 0 mm 2 mps 747 mmHg 46%
    21:00 +30°C° 0 mm 2 mps 747 mmHg 48%
    22:00 +30°C° 0 mm 2 mps 747 mmHg 48%
    23:00 +30°C° 0 mm 3 mps 747 mmHg 48%

    Day after tomorrow, 22 July, Sunday

    Time Temperature Precipitation Wind Pressure Humidity
    00:00 +30°C° 0 mm 3 mps 747 mmHg 48%
    01:00 +30°C° 0 mm 3 mps 747 mmHg 48%
    02:00 +30°C° 0 mm 3 mps 746 mmHg 47%
    03:00 +30°C° 0 mm 3 mps 746 mmHg 46%
    04:00 +30°C° 0 mm 4 mps 746 mmHg 49%
    05:00 +29°C° 0 mm 4 mps 746 mmHg 52%
    06:00 +29°C° 0 mm 4 mps 746 mmHg 56%
    07:00 +30°C° 0 mm 4 mps 746 mmHg 51%
    08:00 +32°C° 0 mm 4 mps 747 mmHg 47%
    09:00 +34°C° 0 mm 4 mps 747 mmHg 43%
    10:00 +34°C° 0 mm 4 mps 747 mmHg 43%
    11:00 +35°C° 0 mm 5 mps 747 mmHg 43%
    12:00 +35°C° 0 mm 5 mps 747 mmHg 44%
    13:00 +35°C° 0 mm 5 mps 747 mmHg 42%
    14:00 +35°C° 0 mm 5 mps 747 mmHg 41%
    15:00 +36°C° 0 mm 5 mps 747 mmHg 39%
    16:00 +35°C° 0 mm 5 mps 747 mmHg 44%
    17:00 +34°C° 0 mm 5 mps 747 mmHg 48%
    18:00 +33°C° 0 mm 5 mps 747 mmHg 53%
    19:00 +32°C° 0 mm 4 mps 747 mmHg 60%
    20:00 +29°C° 0 mm 4 mps 748 mmHg 68%
    21:00 +28°C° 0 mm 4 mps 748 mmHg 75%
    22:00 +27°C° 0 mm 3 mps 748 mmHg 77%
    23:00 +27°C° 0 mm 3 mps 748 mmHg 78%

    23 July, Monday

    Time Temperature Precipitation Wind Pressure Humidity
    00:00 +26°C° 0 mm 3 mps 748 mmHg 80%
    01:00 +26°C° 0 mm 3 mps 748 mmHg 76%
    02:00 +26°C° 0 mm 3 mps 748 mmHg 73%
    03:00 +26°C° 0 mm 3 mps 748 mmHg 70%
    04:00 +26°C° 0 mm 3 mps 748 mmHg 65%
    05:00 +27°C° 0 mm 3 mps 748 mmHg 60%
    06:00 +27°C° 0 mm 3 mps 748 mmHg 55%
    07:00 +29°C° 0 mm 3 mps 749 mmHg 46%
    08:00 +33°C° 0 mm 3 mps 749 mmHg 38%
    09:00 +35°C° 0 mm 3 mps 749 mmHg 29%
    10:00 +36°C° 0 mm 4 mps 749 mmHg 27%
    11:00 +37°C° 0 mm 4 mps 748 mmHg 26%
    12:00 +40°C° 0 mm 5 mps 748 mmHg 24%
    13:00 +40°C° 0 mm 5 mps 748 mmHg 24%
    14:00 +40°C° 0 mm 5 mps 748 mmHg 25%
    15:00 +40°C° 0 mm 6 mps 747 mmHg 25%
    16:00 +39°C° 0 mm 6 mps 747 mmHg 27%
    17:00 +37°C° 0 mm 5 mps 747 mmHg 29%
    18:00 +36°C° 0 mm 5 mps 747 mmHg 31%
    19:00 +35°C° 0 mm 5 mps 748 mmHg 34%
    20:00 +34°C° 0 mm 4 mps 748 mmHg 37%
    21:00 +32°C° 0 mm 4 mps 748 mmHg 40%
    22:00 +32°C° 0 mm 4 mps 748 mmHg 39%
    23:00 +31°C° 0 mm 3 mps 747 mmHg 38%

    24 July, Tuesday

    Time Temperature Precipitation Wind Pressure Humidity
    00:00 +31°C° 0 mm 3 mps 747 mmHg 37%
    01:00 +31°C° 0 mm 3 mps 747 mmHg 36%
    02:00 +30°C° 0 mm 3 mps 746 mmHg 34%
    03:00 +30°C° 0 mm 3 mps 746 mmHg 33%
    04:00 +31°C° 0 mm 3 mps 746 mmHg 32%
    05:00 +31°C° 0 mm 2 mps 747 mmHg 31%
    06:00 +32°C° 0 mm 2 mps 747 mmHg 30%
    07:00 +34°C° 0 mm 2 mps 747 mmHg 28%
    08:00 +36°C° 0 mm 2 mps 747 mmHg 26%
    09:00 +38°C° 0 mm 2 mps 747 mmHg 24%
    10:00 +38°C° 0 mm 3 mps 747 mmHg 25%
    11:00 +39°C° 0 mm 3 mps 747 mmHg 25%
    12:00 +40°C° 0 mm 4 mps 746 mmHg 26%
    13:00 +40°C° 0 mm 4 mps 746 mmHg 28%
    14:00 +40°C° 0 mm 4 mps 746 mmHg 31%
    15:00 +38°C° 0 mm 4 mps 746 mmHg 33%
    16:00 +37°C° 0 mm 3 mps 746 mmHg 38%
    17:00 +36°C° 0 mm 3 mps 746 mmHg 42%
    18:00 +34°C° 0 mm 2 mps 746 mmHg 46%
    19:00 +32°C° 0 mm 2 mps 746 mmHg 50%
    20:00 +31°C° 0 mm 1 mps 746 mmHg 53%
    21:00 +30°C° 0 mm 1 mps 747 mmHg 57%
    22:00 +30°C° 0 mm 1 mps 747 mmHg 57%
    23:00 +30°C° 0 mm 1 mps 747 mmHg 57%

    25 July, Wednesday

    Time Temperature Precipitation Wind Pressure Humidity
    00:00 +29°C° 0 mm 1 mps 747 mmHg 57%
    01:00 +29°C° 0 mm 1 mps 747 mmHg 57%
    02:00 +29°C° 0 mm 1 mps 746 mmHg 57%
    03:00 +28°C° 0 mm 1 mps 746 mmHg 57%
    04:00 +29°C° 0 mm 1 mps 747 mmHg 55%
    05:00 +29°C° 0 mm 1 mps 747 mmHg 53%
    06:00 +30°C° 0 mm 1 mps 747 mmHg 51%
    07:00 +31°C° 0 mm 1 mps 747 mmHg 45%
    08:00 +33°C° 0 mm 1 mps 747 mmHg 39%
    09:00 +35°C° 0 mm 1 mps 748 mmHg 33%
    10:00 +37°C° 0 mm 2 mps 747 mmHg 30%
    11:00 +38°C° 0 mm 2 mps 747 mmHg 27%
    12:00 +39°C° 0 mm 3 mps 747 mmHg 24%
    13:00 +39°C° 0 mm 3 mps 747 mmHg 24%
    14:00 +39°C° 0 mm 3 mps 747 mmHg 23%
    15:00 +39°C° 0 mm 3 mps 746 mmHg 23%
    16:00 +38°C° 0 mm 3 mps 746 mmHg 25%
    17:00 +37°C° 0 mm 3 mps 746 mmHg 27%
    18:00 +36°C° 0 mm 3 mps 746 mmHg 29%
    19:00 +34°C° 0 mm 2 mps 747 mmHg 33%
    20:00 +32°C° 0 mm 2 mps 747 mmHg 37%
    21:00 +31°C° 0 mm 1 mps 747 mmHg 41%
    22:00 +30°C° 0 mm 1 mps 747 mmHg 40%
    23:00 +30°C° 0 mm 1 mps 747 mmHg 39%
    Show more